Location: Chandolas
(44.4033°N, 4.2533°E)
Time: 16:23:03
(UTC+00:00)

Lacrosse 5 - Pass Details

Date: 15 November 2019
Orbit: 715 x 724 km, 57.0° (Epoch: 04 December)

Event Time Altitude Azimuth Distance (km) Brightness Sun altitude
Exits shadow 04:45:06 43° 291° (WNW) 1,001 2.1 -20.2°
Maximum altitude 04:46:04 49° 326° (NW) 921 2.1 -20.0°
Drops below altitude 10° 04:51:00 10° 42° (NE) 2,204 4.8 -19.2°
Sets 04:53:27 0° 48° (NE) 3,125 5.8 -18.7°
